Jackson, MS

8:59 PM CDT on August 23, 2017 (GMT -0500)
Jackson-Evers International

Weather History for KJAN - November, 2013

Change the Weather History Date:

Tuesday, November 5, 2013

  Actual Average Record
Temperature  
Mean Temperature 68 °F 59 °F  
Max Temperature 77 °F 71 °F 85 °F (2003)
Min Temperature 58 °F 47 °F 23 °F (1991)
Degree Days  
Heating Degree Days 0 7  
Month to date heating degree days 33 34  
Since 1 July heating degree days 115 141  
Cooling Degree Days 3 1  
Month to date cooling degree days 3 6  
Year to date cooling degree days 2335 2237  
Growing Degree Days 18 (Base 50)    
Moisture  
Dew Point 53 °F    
Average Humidity 63    
Maximum Humidity 78    
Minimum Humidity 47    
Precipitation  
Precipitation 0.00 in 0.14 in 0.80 in (1905)
Month to date precipitation 0.00 0.69  
Year to date precipitation 53.13 44.92  
Sea Level Pressure  
Sea Level Pressure 30.18 in    
Wind  
Wind Speed 13 mph (SE)    
Max Wind Speed 23 mph    
Max Gust Speed 30 mph    
Visibility 10 miles    
Events      
T = Trace of Precipitation, MM = Missing Value Source: NWS Daily Summary

Daily Weather History Graph

Daily Weather History Graph

Search for Another Location

Airport or City:

Trip Planner

Search our weather history database for the weather conditions in past years. The results will help you decide how hot, cold, wet, or windy it might be!

Date:

Astronomy

Nov. 05, 2013 Rise Set
Actual Time 6:20 AM CST 5:06 PM CST
Civil Twilight 5:55 AM CST 5:31 PM CST
Nautical Twilight 5:26 AM CST 6:01 PM CST
Astronomical Twilight 4:57 AM CST 6:29 PM CST
Moon 8:31 AM CST (11/5) 7:12 PM CST (11/5)
Length of Visible Light 11h 36m
Length of Day
10h 45m
Waxing Crescent, 7% of the Moon is Illuminated
Nov 5
Waxing Crescent
Nov 9
First Quarter
Nov 17
Full
Nov 25
Last Quarter
Dec 2
New

Hourly Weather History & Observations

Time (CST) Temp. Dew Point Humidity Pressure Visibility Wind Dir Wind Speed Gust Speed Precip Events Conditions
12:54 AM 61.0 °F 48.9 °F 64% 30.21 in 10.0 mi ESE 12.7 mph - N/A   Clear
1:54 AM 61.0 °F 48.9 °F 64% 30.20 in 10.0 mi ESE 13.8 mph 20.7 mph N/A   Clear
2:54 AM 61.0 °F 50.0 °F 67% 30.19 in 10.0 mi ESE 16.1 mph - N/A   Mostly Cloudy
3:54 AM 60.1 °F 50.0 °F 69% 30.19 in 10.0 mi ESE 16.1 mph 23.0 mph N/A   Overcast
4:54 AM 60.1 °F 50.0 °F 69% 30.19 in 10.0 mi ESE 10.4 mph 24.2 mph N/A   Overcast
5:54 AM 59.0 °F 50.0 °F 72% 30.21 in 10.0 mi ESE 11.5 mph - N/A   Mostly Cloudy
6:54 AM 59.0 °F 50.0 °F 72% 30.22 in 10.0 mi ESE 9.2 mph 17.3 mph N/A   Mostly Cloudy
7:54 AM 59.0 °F 50.0 °F 72% 30.25 in 10.0 mi SE 5.8 mph - N/A   Mostly Cloudy
8:54 AM 64.0 °F 51.1 °F 63% 30.25 in 10.0 mi SE 12.7 mph 18.4 mph N/A   Mostly Cloudy
9:54 AM 66.9 °F 53.1 °F 61% 30.25 in 10.0 mi SE 19.6 mph 25.3 mph N/A   Mostly Cloudy
10:54 AM 69.1 °F 54.0 °F 58% 30.22 in 10.0 mi SE 18.4 mph - N/A   Scattered Clouds
11:54 AM 72.0 °F 55.0 °F 55% 30.19 in 10.0 mi SE 18.4 mph 24.2 mph N/A   Scattered Clouds
12:54 PM 75.0 °F 55.0 °F 50% 30.16 in 10.0 mi SE 16.1 mph 23.0 mph N/A   Scattered Clouds
1:54 PM 77.0 °F 55.0 °F 47% 30.14 in 10.0 mi SE 17.3 mph - N/A   Scattered Clouds
2:54 PM 75.9 °F 55.9 °F 50% 30.13 in 10.0 mi SSE 15.0 mph - N/A   Partly Cloudy
3:54 PM 73.0 °F 57.0 °F 57% 30.12 in 10.0 mi SE 17.3 mph 23.0 mph N/A   Clear
4:54 PM 69.1 °F 57.0 °F 65% 30.14 in 10.0 mi SE 12.7 mph - N/A   Partly Cloudy
5:54 PM 64.0 °F 55.9 °F 75% 30.15 in 10.0 mi Calm Calm - N/A   Clear
6:54 PM 64.0 °F 55.9 °F 75% 30.16 in 10.0 mi East 4.6 mph - N/A   Clear
7:54 PM 62.1 °F 55.0 °F 78% 30.16 in 10.0 mi ESE 5.8 mph - N/A   Clear
8:54 PM 62.1 °F 54.0 °F 75% 30.16 in 10.0 mi SE 10.4 mph - N/A   Clear
9:54 PM 63.0 °F 54.0 °F 72% 30.16 in 10.0 mi SE 10.4 mph 19.6 mph N/A   Clear
10:54 PM 62.1 °F 54.0 °F 75% 30.15 in 10.0 mi SE 10.4 mph - N/A   Clear
11:54 PM 62.1 °F 53.1 °F 72% 30.14 in 10.0 mi SE 15.0 mph - N/A   Clear